Location: Alberta Star Party
(51.6612°N, 112.9089°W)
Time: 12:12:27
(UTC-07:00)

Amateur Radio Satellites - All Passes

Search period start: 19 February 2017 11:42
Search period end: 20 February 2017 11:42
Location: Alberta Star Party, 51.6612°N, 112.9089°W

Satellite Date Start Highest point End Downlink Frequencies (MHz)
Time Altitude Azimuth
YUBILEINY 19 Feb 11:44:33 11:53:23 84° 99° (E) 12:02:15 435.215
HO-68 19 Feb 11:45:03 11:48:00 13° 326° (NW) 11:50:56 435.675
POLYITAN 1 19 Feb 11:45:05 11:49:11 47° 261° (W) 11:53:20 437.675
QB50P2 19 Feb 11:47:52 11:51:53 42° 262° (W) 11:55:57 145.880/145.840
Tancredo 1 19 Feb 11:50:27 11:53:30 37° 154° (SSE) 11:56:32 437.200
AO-85 19 Feb 11:50:44 11:53:07 15° 14° (NNE) 11:55:26 145.980
NANOSAT C BR1 19 Feb 11:51:14 11:55:16 44° 261° (W) 11:59:21 145.865
VELOX 1 19 Feb 11:52:43 11:55:56 20° 91° (E) 11:59:09 145.980
DX 1 19 Feb 12:07:48 12:09:53 13° 88° (E) 12:11:58 434.975-435.025
BEESAT 3 19 Feb 12:08:49 12:10:52 14° 350° (N) 12:12:56 437.485
DELFI C3 19 Feb 12:16:22 12:17:26 11° 305° (NW) 12:18:31 145.870
BEESAT 2 19 Feb 12:31:28 12:33:46 15° 347° (NNW) 12:36:04 435.950
UKube-1 19 Feb 12:33:06 12:35:56 17° 90° (E) 12:38:46 .
ESTCUBE 1 19 Feb 12:33:29 12:37:59 71° 288° (WNW) 12:42:27 437.505/2401.250
FO-29 19 Feb 12:42:06 12:45:44 14° 283° (WNW) 12:49:31 435.910
ISS 19 Feb 12:45:15 12:48:32 68° 165° (SSE) 12:51:49 437.550
50 SAT 19 Feb 12:49:35 12:52:58 45° 100° (E) 12:56:18 437.505
SPROUT 19 Feb 12:51:19 12:55:34 56° 101° (E) 12:59:48 437.525
BUGSAT 1 19 Feb 12:52:36 12:56:11 30° 264° (W) 12:59:49 437.445
Gurwin Techsat 1B 19 Feb 12:53:16 12:58:25 53° 67° (ENE) 13:03:35 435.225
Oscar 19 19 Feb 13:02:31 13:07:41 83° 256° (WSW) 13:12:53 437.125/150
DUCHIFAT 1 19 Feb 13:06:34 13:07:28 11° 275° (W) 13:08:22 145.980
AO-7 19 Feb 13:12:29 13:19:43 34° 48° (NE) 13:26:56 .
ITAMSAT 1 19 Feb 13:22:40 13:26:48 24° 57° (ENE) 13:30:57 435.822/435.867
Tancredo 1 19 Feb 13:26:23 13:29:39 87° 171° (S) 13:32:54 437.200
VELOX 1 19 Feb 13:28:25 13:32:46 57° 290° (WNW) 13:37:05 145.980
AO-85 19 Feb 13:30:49 13:34:33 38° 38° (NE) 13:38:15 145.980
DX 1 19 Feb 13:42:19 13:46:41 85° 289° (WNW) 13:51:02 434.975-435.025
YUBILEINY 19 Feb 13:43:53 13:51:21 30° 302° (WNW) 13:58:50 435.215
BEESAT 3 19 Feb 13:47:43 13:50:02 15° 14° (NNE) 13:52:21 437.485
UKube-1 19 Feb 14:08:07 14:12:24 65° 290° (WNW) 14:16:41 .
BEESAT 2 19 Feb 14:10:55 14:13:06 14° 11° (N) 14:15:18 435.950
ESTCUBE 1 19 Feb 14:12:07 14:14:01 13° 307° (NW) 14:15:54 437.505/2401.250
ISS 19 Feb 14:21:41 14:24:59 89° 296° (WNW) 14:28:18 437.550
50 SAT 19 Feb 14:23:28 14:25:49 17° 298° (WNW) 14:28:10 437.505
SPROUT 19 Feb 14:27:55 14:31:09 21° 300° (WNW) 14:34:23 437.525
Gurwin Techsat 1B 19 Feb 14:34:06 14:38:38 28° 267° (W) 14:43:13 435.225
MOZHAYETS 4 19 Feb 14:40:55 14:42:05 11° 84° (E) 14:43:14
ITUPSAT 1 19 Feb 14:44:48 14:48:58 28° 94° (E) 14:53:05 437.325
Oscar 19 19 Feb 14:45:09 14:47:50 14° 274° (W) 14:50:31 437.125/150
BEESAT 19 Feb 14:55:49 15:00:14 35° 96° (E) 15:04:37 436.000
ITAMSAT 1 19 Feb 15:00:40 15:05:51 66° 257° (WSW) 15:11:05 435.822/435.867
Tancredo 1 19 Feb 15:02:43 15:05:57 74° 194° (SSW) 15:09:11 437.200
AO-7 19 Feb 15:03:26 15:11:50 80° 252° (WSW) 15:20:16 .
VELOX 1 19 Feb 15:07:46 15:08:19 10° 310° (NW) 15:08:52 145.980
AO-85 19 Feb 15:11:21 15:14:54 33° 238° (WSW) 15:18:27 145.980
DX 1 19 Feb 15:19:58 15:22:14 14° 306° (NW) 15:24:28 434.975-435.025
BEESAT 3 19 Feb 15:24:58 15:28:43 36° 37° (NE) 15:32:27 437.485
UKube-1 19 Feb 15:46:24 15:47:38 11° 308° (NW) 15:48:53 .
BEESAT 2 19 Feb 15:48:26 15:52:04 31° 34° (NE) 15:55:43 435.950
ISS 19 Feb 15:58:11 16:01:21 43° 204° (SSW) 16:04:29 437.550
KKS-1 19 Feb 15:58:50 16:01:44 17° 89° (E) 16:04:36 437.445
DOVE 4 19 Feb 16:06:35 16:08:23 13° 55° (NE) 16:10:11 437.250
XW-2B 19 Feb 16:06:56 16:07:42 10° 55° (NE) 16:08:28 145.730 - 145.750
XW-2C 19 Feb 16:14:17 16:15:57 12° 57° (ENE) 16:17:37 145.795 - 145.815
MOZHAYETS 4 19 Feb 16:15:25 16:20:05 75° 104° (ESE) 16:24:41
ITUPSAT 1 19 Feb 16:22:23 16:26:59 46° 293° (WNW) 16:31:34 437.325
LilacSat-2 19 Feb 16:23:13 16:25:33 16° 59° (ENE) 16:27:54 437.200
BEESAT 19 Feb 16:33:38 16:38:02 37° 296° (WNW) 16:42:25 436.000
Tancredo 1 19 Feb 16:39:16 16:41:58 25° 212° (SSW) 16:44:39 437.200
ITAMSAT 1 19 Feb 16:44:58 16:46:21 11° 277° (W) 16:47:46 435.822/435.867
NUDT-PHONESAT 19 Feb 16:48:30 16:51:21 21° 63° (ENE) 16:54:14 437.300
STARS 19 Feb 16:50:56 16:54:35 25° 93° (E) 16:58:13 437.465
HO-68 19 Feb 16:56:45 17:01:49 21° 45° (NE) 17:06:54 435.675
CUBESAT XI-V 19 Feb 16:57:07 17:01:24 37° 96° (E) 17:05:40 437.345
AO-7 19 Feb 16:59:54 17:05:56 21° 273° (W) 17:12:00 .
CUTE-I 19 Feb 17:00:40 17:05:38 41° 64° (ENE) 17:10:39 437.470
PCSat 19 Feb 17:02:08 17:05:33 17° 106° (ESE) 17:08:58 145.827
BEESAT 3 19 Feb 17:02:37 17:06:24 40° 237° (WSW) 17:10:10 437.485
BEESAT 2 19 Feb 17:26:06 17:30:04 52° 234° (SW) 17:34:00 435.950
RS-15 19 Feb 17:27:47 17:37:05 28° 101° (E) 17:46:35 29.354- 29.394
XW-2F 19 Feb 17:31:57 17:35:45 64° 72° (ENE) 17:39:35 145.980 - 146.000
XW-2D 19 Feb 17:32:30 17:36:19 69° 74° (ENE) 17:40:11 145.860 - 145.880
KKS-1 19 Feb 17:34:19 17:38:46 70° 288° (WNW) 17:43:12 437.445
ISS 19 Feb 17:36:04 17:37:11 11° 222° (SW) 17:38:16 437.550
XW-2B 19 Feb 17:37:21 17:41:12 75° 74° (ENE) 17:45:04 145.730 - 145.750
KAITUO 1B 19 Feb 17:38:15 17:42:01 64° 74° (ENE) 17:45:50 145.475/437.950
DOVE 4 19 Feb 17:41:17 17:45:26 85° 78° (ENE) 17:49:38 437.250
CUTE 1.7 + AOD 2 19 Feb 17:43:14 17:45:50 16° 58° (ENE) 17:48:26 437.475
XW-2C 19 Feb 17:45:42 17:49:34 88° 265° (W) 17:53:28 145.795 - 145.815
MOZHAYETS 4 19 Feb 17:53:32 17:56:44 19° 303° (WNW) 17:59:55
M-CUBED/EXP-1 PRIME 19 Feb 17:55:02 17:58:28 48° 107° (ESE) 18:02:07 437.505
LilacSat-2 19 Feb 17:55:31 17:59:23 68° 258° (WSW) 18:03:17 437.200
XW-2A 19 Feb 18:11:08 18:14:09 31° 68° (ENE) 18:17:13 145.665 - 145.685
NUDT-PHONESAT 19 Feb 18:21:28 18:25:04 43° 262° (W) 18:28:43 437.300
STARS 19 Feb 18:26:54 18:31:09 46° 292° (WNW) 18:35:22 437.465
CUBEBUG 2 19 Feb 18:28:37 18:31:57 21° 59° (ENE) 18:35:22 437.445
CUBESAT XI-V 19 Feb 18:34:38 18:38:45 33° 296° (WNW) 18:42:51 437.345
CUTE-I 19 Feb 18:40:50 18:45:45 37° 264° (W) 18:50:43 437.470
HO-68 19 Feb 18:41:19 18:48:27 71° 67° (ENE) 18:55:36 435.675
PCSat 19 Feb 18:42:45 18:48:10 85° 126° (SE) 18:53:39 145.827
SEEDS 19 Feb 18:51:15 18:55:15 42° 68° (ENE) 18:59:17 437.485
AAUSAT CUBESAT 2 19 Feb 19:00:27 19:04:03 29° 65° (ENE) 19:07:39 437.432
XW-2F 19 Feb 19:08:13 19:10:19 14° 272° (W) 19:12:27 145.980 - 146.000
XW-2D 19 Feb 19:09:03 19:10:59 13° 272° (W) 19:12:56 145.860 - 145.880
AO-73 19 Feb 19:11:53 19:15:14 21° 60° (ENE) 19:18:39 145.935
KKS-1 19 Feb 19:12:44 19:14:33 12° 308° (NW) 19:16:22 437.445
XW-2B 19 Feb 19:14:16 19:15:55 12° 273° (W) 19:17:34 145.730 - 145.750
KAITUO 1B 19 Feb 19:14:26 19:16:29 14° 272° (W) 19:18:32 145.475/437.950
CUTE 1.7 + AOD 2 19 Feb 19:16:50 19:21:07 79° 255° (WSW) 19:25:27 437.475
UWE-3 19 Feb 19:18:52 19:22:57 37° 66° (ENE) 19:27:10 435.000/436.395/437.385
DOVE 4 19 Feb 19:22:20 19:23:49 12° 274° (W) 19:25:18 437.250
Oscar 11 19 Feb 19:26:41 19:30:13 25° 62° (ENE) 19:33:46 .
M-CUBED/EXP-1 PRIME 19 Feb 19:30:14 19:32:45 19° 304° (WNW) 19:35:23 437.505
RS-15 19 Feb 19:35:41 19:47:43 80° 126° (SE) 20:00:07 29.354- 29.394
STRAND 1 19 Feb 19:37:08 19:42:04 42° 98° (E) 19:46:57 437.568
XW-2A 19 Feb 19:44:17 19:47:00 22° 266° (W) 19:49:45 145.665 - 145.685
YUBILEINY 19 Feb 19:52:05 19:57:32 17° 45° (NE) 20:02:56 435.215
ZACube-1 19 Feb 19:54:25 19:58:43 50° 70° (ENE) 20:03:07 437.345
DELFI C3 19 Feb 19:56:43 19:59:16 17° 59° (ENE) 20:01:49 145.870
CUBEBUG 2 19 Feb 20:03:51 20:08:10 60° 259° (W) 20:12:42 437.445
PCSat 19 Feb 20:27:31 20:32:13 29° 328° (NNW) 20:36:56 145.827
SEEDS 19 Feb 20:27:36 20:31:07 25° 267° (W) 20:34:38 437.485
HO-68 19 Feb 20:30:40 20:36:47 30° 268° (W) 20:42:56 435.675
AAUSAT CUBESAT 2 19 Feb 20:35:35 20:39:26 36° 264° (W) 20:43:18 437.432
AO-73 19 Feb 20:46:43 20:51:05 60° 259° (W) 20:55:35 145.935
UWE-3 19 Feb 20:55:34 20:59:29 31° 266° (W) 21:03:31 435.000/436.395/437.385
CUTE 1.7 + AOD 2 19 Feb 20:56:54 20:57:42 10° 276° (W) 20:58:30 437.475
Oscar 11 19 Feb 21:01:55 21:06:08 47° 261° (W) 21:10:22 .
PRISM 19 Feb 21:03:30 21:05:59 16° 90° (E) 21:08:27 437.425
STRAND 1 19 Feb 21:16:32 21:21:11 35° 297° (WNW) 21:25:49 437.568
DELFI C3 19 Feb 21:29:41 21:33:39 64° 258° (WSW) 21:37:36 145.870
ZACube-1 19 Feb 21:31:45 21:35:17 23° 269° (W) 21:38:53 437.345
YUBILEINY 19 Feb 21:48:05 21:56:44 57° 72° (ENE) 22:05:16 435.215
RS-15 19 Feb 21:49:24 22:01:20 54° 335° (NNW) 22:13:28 29.354- 29.394
FO-29 19 Feb 21:56:24 22:02:19 23° 84° (E) 22:07:59 435.910
ESTCUBE 1 19 Feb 22:02:00 22:05:54 29° 63° (ENE) 22:09:48 437.505/2401.250
PCSat 19 Feb 22:14:03 22:17:25 16° 354° (N) 22:20:47 145.827
SPROUT 19 Feb 22:16:31 22:18:34 13° 55° (NE) 22:20:38 437.525
UNISAT 6 19 Feb 22:27:15 22:31:49 47° 99° (E) 22:36:22 437.425
TIGRISAT 19 Feb 22:29:33 22:34:07 47° 99° (E) 22:38:39 435.000
PRISM 19 Feb 22:37:40 22:41:42 64° 288° (WNW) 22:45:43 437.425
VELOX 1 19 Feb 22:54:45 22:58:41 34° 65° (ENE) 23:02:39 145.980
DUCHIFAT 1 19 Feb 23:07:26 23:08:51 11° 86° (E) 23:10:16 145.980
DX 1 19 Feb 23:07:47 23:11:14 24° 61° (ENE) 23:14:42 434.975-435.025
EO-79 19 Feb 23:09:59 23:12:21 14° 88° (E) 23:14:43 145.935-145.965
O/OREOS (USA 219) 19 Feb 23:11:35 23:13:10 12° 97° (E) 23:14:47 437.305
POLYITAN 1 19 Feb 23:24:52 23:28:04 20° 91° (E) 23:31:15 437.675
QB50P2 19 Feb 23:27:25 23:30:49 22° 92° (E) 23:34:11 145.880/145.840
50 SAT 19 Feb 23:28:38 23:31:59 43° 70° (ENE) 23:35:21 437.505
NANOSAT C BR1 19 Feb 23:30:22 23:33:37 21° 91° (E) 23:36:50 145.865
UKube-1 19 Feb 23:32:15 23:35:58 29° 63° (ENE) 23:39:42 .
ESTCUBE 1 19 Feb 23:38:18 23:42:35 41° 262° (W) 23:46:53 437.505/2401.250
FO-29 19 Feb 23:40:30 23:48:27 85° 106° (ESE) 23:55:54 435.910
YUBILEINY 19 Feb 23:45:19 23:53:18 42° 275° (W) 00:01:14 435.215
SO-50 19 Feb 23:47:39 23:51:29 25° 117° (ESE) 23:55:17 436.795
SPROUT 19 Feb 23:49:34 23:53:50 84° 74° (ENE) 23:58:08 437.525
AIST 2D 19 Feb 23:50:43 23:54:16 53° 100° (E) 23:57:45 435.315
PCSat 19 Feb 23:58:54 00:02:54 20° 20° (NNE) 00:06:53 145.827
UNISAT 6 20 Feb 00:04:21 00:08:20 28° 298° (WNW) 00:12:18 437.425
RS-15 20 Feb 00:05:11 00:16:58 46° 8° (N) 00:28:38 29.354- 29.394
TIGRISAT 20 Feb 00:06:36 00:10:36 28° 298° (WNW) 00:14:36 435.000
PRISM 20 Feb 00:15:57 00:16:12 10° 308° (NW) 00:16:27 437.425
ITUPSAT 1 20 Feb 00:22:30 00:24:15 12° 49° (NE) 00:26:00 437.325
BUGSAT 1 20 Feb 00:28:23 00:31:59 26° 94° (E) 00:35:35 437.445
VELOX 1 20 Feb 00:31:11 00:35:09 33° 263° (W) 00:39:09 145.980
BEESAT 20 Feb 00:32:27 00:34:56 14° 52° (NE) 00:37:26 436.000
DUCHIFAT 1 20 Feb 00:40:54 00:45:12 86° 104° (ESE) 00:49:29 145.980
DX 1 20 Feb 00:42:59 00:47:11 49° 260° (W) 00:51:25 434.975-435.025
EO-79 20 Feb 00:44:22 00:48:40 76° 287° (WNW) 00:52:56 145.935-145.965
O/OREOS (USA 219) 20 Feb 00:47:19 00:51:47 82° 117° (ESE) 00:56:19 437.305
POLYITAN 1 20 Feb 00:59:58 01:04:11 54° 290° (WNW) 01:08:23 437.675
QB50P2 20 Feb 01:02:43 01:06:51 48° 291° (WNW) 01:10:59 145.880/145.840
50 SAT 20 Feb 01:02:59 01:05:22 17° 268° (W) 01:07:44 437.505
Gurwin Techsat 1B 20 Feb 01:05:25 01:08:00 13° 85° (E) 01:10:33 435.225
NANOSAT C BR1 20 Feb 01:05:27 01:09:38 52° 290° (WNW) 01:13:46 145.865
UKube-1 20 Feb 01:07:53 01:11:54 38° 262° (W) 01:15:57 .
Oscar 19 20 Feb 01:09:03 01:13:08 23° 91° (E) 01:17:11 437.125/150
AIST 2D 20 Feb 01:24:52 01:27:08 16° 299° (WNW) 01:29:25 435.315
FO-29 20 Feb 01:26:06 01:32:39 30° 307° (NW) 01:38:59 435.910
SO-50 20 Feb 01:27:00 01:31:39 63° 317° (NW) 01:36:13 436.795
SPROUT 20 Feb 01:28:24 01:30:22 13° 273° (W) 01:32:20 437.525
PCSat 20 Feb 01:42:13 01:47:32 51° 44° (NE) 01:52:50 145.827
MOZHAYETS 4 20 Feb 01:46:41 01:50:10 21° 59° (ENE) 01:53:40
ITUPSAT 1 20 Feb 01:56:25 02:01:08 59° 69° (ENE) 02:05:54 437.325
BUGSAT 1 20 Feb 02:03:32 02:07:27 39° 293° (WNW) 02:11:24 437.445
BEESAT 20 Feb 02:07:09 02:11:55 74° 73° (ENE) 02:16:45 436.000
DUCHIFAT 1 20 Feb 02:17:54 02:20:18 15° 304° (NW) 02:22:42 145.980
RS-15 20 Feb 02:19:22 02:31:50 72° 40° (NE) 02:43:54 29.354- 29.394
EO-79 20 Feb 02:21:54 02:23:43 12° 306° (NW) 02:25:30 145.935-145.965
O/OREOS (USA 219) 20 Feb 02:28:29 02:31:48 20° 318° (NW) 02:35:08 437.305
CUBESAT XI-V 20 Feb 02:31:30 02:33:21 12° 52° (NE) 02:35:13 437.345
Gurwin Techsat 1B 20 Feb 02:43:29 02:48:51 77° 104° (ESE) 02:54:11 435.225
Oscar 19 20 Feb 02:47:48 02:52:52 61° 291° (WNW) 02:57:54 437.125/150
AO-7 20 Feb 02:59:32 03:06:09 25° 90° (E) 03:12:41 .
KKS-1 20 Feb 03:01:35 03:05:26 30° 63° (ENE) 03:09:18 437.445
ITAMSAT 1 20 Feb 03:08:11 03:12:45 29° 94° (E) 03:17:18 435.822/435.867
SO-50 20 Feb 03:09:20 03:12:56 22° 339° (NNW) 03:16:30 436.795
M-CUBED/EXP-1 PRIME 20 Feb 03:13:23 03:15:39 18° 56° (NE) 03:17:54 437.505
FO-29 20 Feb 03:13:49 03:15:16 11° 331° (NNW) 03:16:42 435.910
MOZHAYETS 4 20 Feb 03:22:19 03:26:55 64° 258° (WSW) 03:31:35
PCSat 20 Feb 03:25:52 03:30:50 37° 245° (WSW) 03:35:45 145.827
ITUPSAT 1 20 Feb 03:35:38 03:39:21 22° 269° (W) 03:43:06 437.325
BEESAT 20 Feb 03:47:04 03:50:16 18° 271° (W) 03:53:28 436.000
STARS 20 Feb 03:52:21 03:56:28 42° 67° (ENE) 04:00:37 437.465
CUBESAT XI-V 20 Feb 04:05:15 04:09:54 66° 71° (ENE) 04:14:32 437.345
Gurwin Techsat 1B 20 Feb 04:24:17 04:28:17 22° 304° (NW) 04:32:16 435.225
Oscar 19 20 Feb 04:28:57 04:31:13 13° 311° (NW) 04:33:30 437.125/150
RS-15 20 Feb 04:32:25 04:43:58 50° 247° (WSW) 04:55:09 29.354- 29.394
KKS-1 20 Feb 04:37:46 04:41:54 38° 262° (W) 04:46:04 437.445
M-CUBED/EXP-1 PRIME 20 Feb 04:46:46 04:49:57 42° 253° (WSW) 04:53:06 437.505
ITAMSAT 1 20 Feb 04:47:24 04:52:28 50° 293° (WNW) 04:57:30 435.822/435.867
AO-7 20 Feb 04:51:36 05:00:01 89° 296° (WNW) 05:08:20 .
SO-50 20 Feb 04:52:02 04:54:58 16° 4° (N) 04:57:52 436.795
STRAND 1 20 Feb 05:21:11 05:24:52 20° 55° (NE) 05:28:33 437.568
STARS 20 Feb 05:29:18 05:32:58 26° 266° (W) 05:36:41 437.465
AO-85 20 Feb 05:31:12 05:34:15 18° 115° (ESE) 05:37:11 145.980
DOVE 4 20 Feb 05:34:44 05:37:33 16° 89° (E) 05:40:27 437.250
CUBESAT XI-V 20 Feb 05:44:26 05:47:43 19° 271° (W) 05:51:01 437.345
NUDT-PHONESAT 20 Feb 05:47:54 05:49:48 13° 88° (E) 05:51:43 437.300
ITAMSAT 1 20 Feb 06:29:12 06:30:48 11° 314° (NW) 06:32:24 435.822/435.867
SO-50 20 Feb 06:32:53 06:36:50 28° 28° (NNE) 06:40:44 436.795
XW-2F 20 Feb 06:32:58 06:36:41 44° 99° (E) 06:40:20 145.980 - 146.000
XW-2D 20 Feb 06:33:54 06:37:39 47° 99° (E) 06:41:22 145.860 - 145.880
KAITUO 1B 20 Feb 06:38:16 06:41:55 43° 99° (E) 06:45:31 145.475/437.950
XW-2B 20 Feb 06:38:46 06:42:34 52° 100° (E) 06:46:19 145.730 - 145.750
AO-7 20 Feb 06:45:01 06:51:55 30° 314° (NW) 06:58:48 .
XW-2C 20 Feb 06:47:07 06:50:59 65° 102° (ESE) 06:54:47 145.795 - 145.815
RS-15 20 Feb 06:49:02 06:53:01 12° 272° (W) 06:56:58 29.354- 29.394
CUTE-I 20 Feb 06:51:33 06:56:54 59° 101° (ESE) 07:02:12 437.470
LilacSat-2 20 Feb 06:57:34 07:01:29 87° 104° (ESE) 07:05:20 437.200
CUTE 1.7 + AOD 2 20 Feb 06:57:50 06:59:50 13° 86° (E) 07:01:48 437.475
STRAND 1 20 Feb 06:58:19 07:03:28 82° 255° (WSW) 07:08:41 437.568
XW-2A 20 Feb 07:00:56 07:03:11 16° 91° (E) 07:05:28 145.665 - 145.685
AO-85 20 Feb 07:09:48 07:14:15 77° 314° (NW) 07:18:24 145.980
DOVE 4 20 Feb 07:11:16 07:15:43 75° 287° (WNW) 07:20:27 437.250
NUDT-PHONESAT 20 Feb 07:20:25 07:24:12 66° 286° (WNW) 07:27:56 437.300
O/OREOS (USA 219) 20 Feb 07:34:21 07:36:51 14° 36° (NE) 07:39:23 437.305
CUBEBUG 2 20 Feb 07:49:22 07:53:07 23° 91° (E) 07:56:51 437.445
HO-68 20 Feb 07:50:39 07:57:30 45° 98° (E) 08:04:17 435.675
UNISAT 6 20 Feb 07:57:18 07:59:32 14° 53° (NE) 08:01:46 437.425
PRISM 20 Feb 07:57:31 08:00:49 24° 62° (ENE) 08:04:08 437.425
TIGRISAT 20 Feb 07:59:32 08:01:41 13° 53° (NE) 08:03:52 435.000
SEEDS 20 Feb 08:05:02 08:08:59 38° 97° (E) 08:12:53 437.485
XW-2F 20 Feb 08:07:40 08:10:36 21° 297° (WNW) 08:13:30 145.980 - 146.000
XW-2D 20 Feb 08:08:43 08:11:35 20° 298° (WNW) 08:14:24 145.860 - 145.880
AAUSAT CUBESAT 2 20 Feb 08:12:13 08:15:37 24° 93° (E) 08:19:00 437.432
KAITUO 1B 20 Feb 08:12:48 08:15:43 21° 297° (WNW) 08:18:36 145.475/437.950
SO-50 20 Feb 08:13:14 08:17:46 78° 230° (SW) 08:22:15 436.795
XW-2B 20 Feb 08:13:43 08:16:27 19° 299° (WNW) 08:19:09 145.730 - 145.750
FO-29 20 Feb 08:14:55 08:20:13 22° 46° (NE) 08:25:46 435.910
XW-2C 20 Feb 08:22:23 08:24:45 16° 301° (WNW) 08:27:06 145.795 - 145.815
AO-73 20 Feb 08:29:46 08:33:10 20° 90° (E) 08:36:32 145.935
CUTE 1.7 + AOD 2 20 Feb 08:31:59 08:36:16 82° 284° (WNW) 08:40:29 437.475
CUTE-I 20 Feb 08:32:08 08:36:38 28° 301° (WNW) 08:41:07 437.470
XW-2A 20 Feb 08:32:53 08:36:13 44° 289° (WNW) 08:39:31 145.665 - 145.685
LilacSat-2 20 Feb 08:33:26 08:35:10 13° 303° (WNW) 08:36:55 437.200
BEESAT 3 20 Feb 08:34:03 08:37:53 56° 126° (SE) 08:41:49 437.485
AO-7 20 Feb 08:38:49 08:42:06 13° 340° (NNW) 08:45:22 .
UWE-3 20 Feb 08:38:52 08:43:18 40° 97° (E) 08:47:42 435.000/436.395/437.385
STRAND 1 20 Feb 08:40:54 08:43:29 14° 275° (W) 08:46:05 437.568
Oscar 11 20 Feb 08:43:56 08:47:23 22° 92° (E) 08:50:48 .
DOVE 4 20 Feb 08:50:46 08:52:47 13° 305° (NW) 08:54:49 437.250
AO-85 20 Feb 08:51:59 08:55:15 21° 334° (NNW) 08:58:24 145.980
BEESAT 2 20 Feb 08:59:25 09:03:12 45° 124° (SE) 09:07:04 435.950
DELFI C3 20 Feb 09:03:20 09:04:40 11° 87° (E) 09:06:00 145.870
YUBILEINY 20 Feb 09:06:08 09:09:24 13° 66° (ENE) 09:12:40 435.215
O/OREOS (USA 219) 20 Feb 09:12:42 09:17:15 61° 58° (ENE) 09:21:47 437.305
ZACube-1 20 Feb 09:13:14 09:17:45 52° 99° (E) 09:22:12 437.345
CUBEBUG 2 20 Feb 09:25:23 09:30:03 57° 289° (WNW) 09:34:43 437.445
UNISAT 6 20 Feb 09:30:59 09:35:27 76° 73° (ENE) 09:40:04 437.425
PRISM 20 Feb 09:32:01 09:35:56 42° 261° (W) 09:39:50 437.425
TIGRISAT 20 Feb 09:33:07 09:37:34 75° 74° (ENE) 09:42:11 435.000
HO-68 20 Feb 09:38:31 09:45:19 49° 299° (WNW) 09:52:06 435.675
SEEDS 20 Feb 09:41:00 09:44:34 27° 296° (WNW) 09:48:06 437.485
AAUSAT CUBESAT 2 20 Feb 09:47:22 09:51:15 40° 292° (WNW) 09:55:05 437.432
SO-50 20 Feb 09:55:19 09:57:29 13° 249° (WSW) 09:59:38 436.795
FO-29 20 Feb 09:56:54 10:03:57 70° 68° (ENE) 10:11:39 435.910
DUCHIFAT 1 20 Feb 10:03:39 10:06:32 18° 59° (ENE) 10:09:27 145.980
AO-73 20 Feb 10:05:15 10:09:47 60° 289° (WNW) 10:14:16 145.935
EO-79 20 Feb 10:07:08 10:10:25 22° 61° (ENE) 10:13:43 145.935-145.965
CUTE 1.7 + AOD 2 20 Feb 10:09:29 10:11:25 13° 305° (NW) 10:13:21 437.475
BEESAT 3 20 Feb 10:12:16 10:15:45 29° 327° (NNW) 10:19:17 437.485
UWE-3 20 Feb 10:15:31 10:19:40 32° 296° (WNW) 10:23:47 435.000/436.395/437.385
ISS 20 Feb 10:18:21 10:20:11 14° 140° (SE) 10:22:01 437.550
Oscar 11 20 Feb 10:19:34 10:23:46 48° 291° (WNW) 10:27:56 .
POLYITAN 1 20 Feb 10:22:17 10:25:58 30° 64° (ENE) 10:29:42 437.675
QB50P2 20 Feb 10:24:52 10:28:39 33° 65° (ENE) 10:32:29 145.880/145.840
NANOSAT C BR1 20 Feb 10:27:18 10:30:59 30° 64° (ENE) 10:34:43 145.865
AO-7 20 Feb 10:29:56 10:31:18 10° 8° (N) 10:32:39 .
AIST 2D 20 Feb 10:30:07 10:33:30 44° 71° (ENE) 10:36:57 435.315
AO-85 20 Feb 10:35:10 10:37:06 13° 359° (N) 10:39:00 145.980
DELFI C3 20 Feb 10:36:05 10:40:03 83° 287° (WNW) 10:43:58 145.870
BEESAT 2 20 Feb 10:37:28 10:41:07 33° 325° (NW) 10:44:49 435.950
ZACube-1 20 Feb 10:50:01 10:53:45 25° 299° (WNW) 10:57:27 437.345
O/OREOS (USA 219) 20 Feb 10:52:52 10:56:15 21° 258° (WSW) 10:59:39 437.305
Oscar 19 20 Feb 10:55:32 10:57:36 12° 48° (NE) 10:59:40 437.125/150
YUBILEINY 20 Feb 10:55:35 11:04:02 53° 89° (E) 11:12:29 435.215
Tancredo 1 20 Feb 10:56:07 10:58:51 25° 148° (SSE) 11:01:35 437.200
CUBEBUG 2 20 Feb 11:04:22 11:05:43 11° 309° (NW) 11:07:04 437.445
UNISAT 6 20 Feb 11:10:02 11:12:45 16° 273° (W) 11:15:31 437.425
TIGRISAT 20 Feb 11:12:05 11:14:51 16° 273° (W) 11:17:39 435.000
BUGSAT 1 20 Feb 11:23:01 11:26:45 36° 67° (ENE) 11:30:32 437.445
ESTCUBE 1 20 Feb 11:25:11 11:29:05 28° 94° (E) 11:32:57 437.505/2401.250
HO-68 20 Feb 11:27:39 11:31:28 15° 322° (NW) 11:35:17 435.675
SPROUT 20 Feb 11:32:44 11:33:14 10° 85° (E) 11:33:44 437.525
